| time (UTC) | temp F | wind direction | speed MPH | gust MPH | rain 1hr in | rain 24hr in | rain mn in | humidity % | barometer mb |
| 20260506033218 | 55 | 0.0 | 0.0 | 0.00 | 0.00 | 0.00 | 75 | ||
| 20260506031718 | 56 | 0.0 | 0.0 | 0.00 | 0.00 | 0.00 | 75 | ||
| 20260506030217 | 56 | 0.0 | 0.0 | 0.00 | 0.00 | 0.00 | 75 | ||
| 20260506024716 | 56 | 0.0 | 0.0 | 0.00 | 0.00 | 0.00 | 75 | ||
| 20260506023215 | 56 | 0.0 | 0.0 | 0.00 | 0.00 | 0.00 | 77 | ||
| 20260506021715 | 56 | 0.0 | 0.0 | 0.00 | 0.00 | 0.00 | 77 | ||
| 20260506020214 | 57 | 0.0 | 0.0 | 0.00 | 0.00 | 0.00 | 76 | ||
| 20260506014714 | 57 | 0.0 | 0.0 | 0.00 | 0.00 | 0.00 | 76 | ||
| 20260506013213 | 57 | 0.0 | 0.0 | 0.00 | 0.00 | 0.00 | 77 | ||
| 20260506010211 | 57 | 0.0 | 0.0 | 0.00 | 0.00 | 0.00 | 78 | ||
| 20260506004710 | 58 | 0.0 | 0.0 | 0.00 | 0.00 | 0.00 | 76 | ||
| 20260506003210 | 59 | 0.0 | 0.0 | 0.00 | 0.00 | 0.00 | 76 | ||
| 20260506001709 | 59 | 0.0 | 0.0 | 0.00 | 0.00 | 0.00 | 76 | ||
| 20260506000208 | 59 | 0.0 | 0.0 | 0.00 | 0.00 | 0.00 | 77 | ||
| 20260505234708 | 59 | 0.0 | 0.0 | 0.00 | 0.00 | 0.00 | 77 | ||
| 20260505233245 | 59 | 0.0 | 0.0 | 0.00 | 0.00 | 0.00 | 78 | ||
| 20260505231706 | 59 | 0.0 | 0.0 | 0.00 | 0.00 | 0.00 | 78 | ||
| 20260505224705 | 60 | 0.0 | 0.0 | 0.00 | 0.00 | 0.00 | 77 | ||
| 20260505223204 | 61 | 0.0 | 0.0 | 0.00 | 0.00 | 0.00 | 77 | ||
| 20260505221703 | 61 | 0.0 | 0.0 | 0.00 | 0.00 | 0.00 | 77 | ||
| 20260505220202 | 61 | 0.0 | 0.0 | 0.00 | 0.00 | 0.00 | 77 | ||
| 20260505214702 | 61 | 0.0 | 0.0 | 0.00 | 0.00 | 0.00 | 77 | ||
| 20260505213201 | 62 | 0.0 | 0.0 | 0.00 | 0.00 | 0.00 | 78 | ||
| 20260505211700 | 61 | 0.0 | 0.0 | 0.00 | 0.00 | 0.00 | 79 | ||
| 20260505210200 | 61 | 0.0 | 0.0 | 0.00 | 0.00 | 0.00 | 79 | ||
| 20260505204659 | 62 | 0.0 | 0.0 | 0.00 | 0.00 | 0.00 | 79 | ||
| 20260505203158 | 62 | 0.0 | 0.0 | 0.00 | 0.00 | 0.00 | 79 | ||
| 20260505201658 | 62 | 0.0 | 0.0 | 0.00 | 0.00 | 0.00 | 79 | ||
| 20260505200157 | 62 | 0.0 | 0.0 | 0.00 | 0.00 | 0.00 | 78 | ||
| 20260505194656 | 63 | 0.0 | 0.0 | 0.00 | 0.00 | 0.00 | 77 | ||
| 20260505193155 | 63 | 0.0 | 0.0 | 0.00 | 0.00 | 0.00 | 76 | ||
| 20260505191654 | 63 | 0.0 | 0.0 | 0.00 | 0.00 | 0.00 | 77 | ||
| 20260505190154 | 63 | 0.0 | 0.0 | 0.00 | 0.00 | 0.00 | 77 | ||
| 20260505184653 | 64 | 0.0 | 0.0 | 0.00 | 0.00 | 0.00 | 76 | ||
| 20260505183152 | 65 | 0.0 | 0.0 | 0.00 | 0.00 | 0.00 | 76 | ||
| 20260505181651 | 65 | 0.0 | 0.0 | 0.00 | 0.00 | 0.00 | 75 | ||
| 20260505180150 | 64 | 0.0 | 0.0 | 0.00 | 0.00 | 0.00 | 75 | ||
| 20260505174650 | 64 | 0.0 | 0.0 | 0.00 | 0.00 | 0.00 | 73 | ||
| 20260505173149 | 65 | 0.0 | 0.0 | 0.00 | 0.00 | 0.00 | 74 | ||
| 20260505171648 | 65 | 0.0 | 0.0 | 0.00 | 0.00 | 0.00 | 72 | ||
| 20260505170147 | 66 | 0.0 | 0.0 | 0.00 | 0.00 | 0.00 | 72 | ||
| 20260505164646 | 67 | 0.0 | 0.0 | 0.00 | 0.00 | 0.00 | 73 | ||
| 20260505163146 | 65 | 0.0 | 0.0 | 0.00 | 0.00 | 0.00 | 72 | ||
| 20260505161645 | 65 | 0.0 | 0.0 | 0.00 | 0.00 | 0.00 | 74 | ||
| 20260505160144 | 64 | 0.0 | 0.0 | 0.00 | 0.00 | 0.00 | 74 | ||
| 20260505153142 | 65 | 0.0 | 0.0 | 0.00 | 0.00 | 0.00 | 74 | ||
| 20260505151642 | 65 | 0.0 | 0.0 | 0.00 | 0.00 | 0.00 | 74 | ||
| 20260505150141 | 65 | 0.0 | 0.0 | 0.00 | 0.00 | 0.00 | 75 | ||
| 20260505130134 | 72 | 0.0 | 0.0 | 0.00 | 0.00 | 0.00 | 54 | ||
| 20260505124634 | 73 | 0.0 | 0.0 | 0.00 | 0.00 | 0.00 | 52 | ||
| 20260505123132 | 73 | 0.0 | 0.0 | 0.00 | 0.00 | 0.00 | 52 | ||
| 20260505121632 | 73 | 0.0 | 0.0 | 0.00 | 0.00 | 0.00 | 51 | ||
| 20260505120131 | 74 | 0.0 | 0.0 | 0.00 | 0.00 | 0.00 | 53 | ||
| 20260505114631 | 76 | 0.0 | 0.0 | 0.00 | 0.00 | 0.00 | 50 | ||
| 20260505113129 | 75 | 0.0 | 0.0 | 0.00 | 0.00 | 0.00 | 52 | ||
| 20260505111628 | 74 | 0.0 | 0.0 | 0.00 | 0.00 | 0.00 | 52 | ||
| 20260505110127 | 76 | 0.0 | 0.0 | 0.00 | 0.00 | 0.00 | 51 | ||
| 20260505101624 | 75 | 0.0 | 0.0 | 0.00 | 0.00 | 0.00 | 51 | ||
| 20260505100123 | 74 | 0.0 | 0.0 | 0.00 | 0.00 | 0.00 | 52 | ||
| 20260505094622 | 74 | 0.0 | 0.0 | 0.00 | 0.00 | 0.00 | 54 | ||
| 20260505093122 | 75 | 0.0 | 0.0 | 0.00 | 0.00 | 0.00 | 53 | ||
| 20260505091621 | 73 | 0.0 | 0.0 | 0.00 | 0.00 | 0.00 | 55 | ||
| 20260505090120 | 72 | 0.0 | 0.0 | 0.00 | 0.00 | 0.00 | 54 | ||
| 20260505084619 | 72 | 0.0 | 0.0 | 0.00 | 0.00 | 0.00 | 54 | ||
| 20260505083119 | 72 | 0.0 | 0.0 | 0.00 | 0.00 | 0.00 | 57 | ||
| 20260505081618 | 71 | 0.0 | 0.0 | 0.00 | 0.00 | 0.00 | 58 | ||
| 20260505080118 | 73 | 0.0 | 0.0 | 0.00 | 0.00 | 0.00 | 57 | ||
| 20260505074617 | 70 | 0.0 | 0.0 | 0.00 | 0.00 | 0.00 | 59 | ||
| 20260505073116 | 69 | 0.0 | 0.0 | 0.00 | 0.00 | 0.00 | 63 | ||
| 20260505071615 | 69 | 0.0 | 0.0 | 0.00 | 0.00 | 0.00 | 62 | ||
| 20260505070114 | 66 | 0.0 | 0.0 | 0.00 | 0.00 | 0.00 | 65 | ||
| 20260505064614 | 65 | 0.0 | 0.0 | 0.00 | 0.00 | 0.00 | 65 | ||
| 20260505063113 | 65 | 0.0 | 0.0 | 0.00 | 0.00 | 0.00 | 67 | ||
| 20260505061612 | 64 | 0.0 | 0.0 | 0.00 | 0.00 | 0.00 | 68 | ||
| 20260505060112 | 63 | 0.0 | 0.0 | 0.00 | 0.00 | 0.00 | 68 | ||
| 20260505054611 | 62 | 0.0 | 0.0 | 0.00 | 0.00 | 0.00 | 69 | ||
| 20260505053110 | 62 | 0.0 | 0.0 | 0.00 | 0.00 | 0.00 | 70 | ||
| 20260505051610 | 61 | 0.0 | 0.0 | 0.00 | 0.00 | 0.00 | 70 | ||
| 20260505050109 | 60 | 0.0 | 0.0 | 0.00 | 0.00 | 0.00 | 72 | ||
| 20260505041606 | 61 | 0.0 | 0.0 | 0.00 | 0.00 | 0.00 | 72 | ||
| 20260505040106 | 62 | 0.0 | 0.0 | 0.00 | 0.00 | 0.00 | 70 | ||
| 20260505034605 | 62 | 0.0 | 0.0 | 0.00 | 0.00 | 0.00 | 70 |